Вернуться в каталог

STARLINK-31685

АктивенСвязьVLEO
NORAD 59578·PAYLOAD·🇺🇸 United States

Запущен Apr 23, 2024 с Cape Canaveral Space Force Station

Loading…

Ближайшие Пролёты (ближайшие 24 часа)

TLE

СвежийSource: CelesTrak SupGP

Эпоха: Sep 15, 2026, 03:30 UTC

1 59578C 24076Q   26258.14631944  .00017653  00000+0  63952-3 0  2585
2 59578  43.0017  18.6841 0001480 272.6549  19.8050 15.27563107    18

Отслеживайте STARLINK-31685 в реальном времени с AllMySat

Download on the App Store